Date String (YYYY-MM-DD hh:mm:ss) UTC,Instrument flags,absolute air pressure of the measurement (hPa),sample flow rate (lpm),inlet stack bypass flow (lpm),air temperature of the measurement (°C),ambient temperature measured by the external sensor (°C),aerosol sample conditioner tube jacket temperature (°C),OPC LED temperature (°C),internal box temperature (°C),relative humidity of the measurement (%),span deviation,mass concentration of particles derived from Lorenz-Mie calculation of OPC scattering (μg/m³),mass concentration of particles derived from Lorenz-Mie calculation of OPC scattering (μg/m³),mass concentration of particles derived from Lorenz-Mie calculation of OPC scattering (μg/m³)
DateTimeUTC,F1_M11,P_M11,Q1_M11,Q2_M11,T1_M11,T2_M11,T3_M11,T4_M11,T5_M11,U1_M11,ZSPAN_M11,X2_M11,X0_M11,X1_M11
2024-02-14 09:00:00,SystemResetWarning,0823.8,5.01,000.00,019.4,018.9,000.0,028.0,021.2,14.7,0000.0,0005.78,0012.05,0005.18
2024-02-14 09:01:00,SystemResetWarning,0823.8,4.98,000.00,019.4,018.9,000.0,028.0,021.2,14.8,0002.8,0005.77,0011.64,0005.19
2024-02-14 09:02:00,SystemResetWarning,0823.8,5.00,000.00,019.4,018.8,000.0,028.0,021.2,14.8,0001.9,0005.76,0010.64,0005.18
2024-02-14 09:03:00,SystemResetWarning,0823.7,5.01,000.00,019.4,018.8,000.0,028.0,021.1,14.9,0000.0,0005.77,0009.64,0005.19
2024-02-14 09:04:00,SystemResetWarning,0823.8,5.00,000.00,019.4,018.8,000.0,028.0,021.1,14.9,0000.0,0005.70,0009.61,0005.17
2024-02-14 09:05:00,SystemResetWarning,0823.8,4.98,000.00,019.4,018.8,000.0,027.9,021.1,14.9,0000.0,0005.68,0009.52,0005.15
2024-02-14 09:06:00,SystemResetWarning,0823.8,4.99,000.00,019.3,018.8,000.0,027.9,021.1,14.9,0000.0,0005.68,0009.16,0005.14
2024-02-14 09:07:00,SystemResetWarning,0823.8,5.00,000.00,019.3,018.8,000.0,027.9,021.1,14.9,0000.0,0005.68,0009.43,0005.15
2024-02-14 09:08:00,SystemResetWarning,0823.8,5.01,000.00,019.3,018.8,000.0,027.9,021.1,15.1,0000.0,0005.69,0009.69,0005.15
2024-02-14 09:09:00,SystemResetWarning,0823.8,4.99,000.00,019.3,018.8,000.0,027.9,021.0,15.1,0000.0,0005.71,0010.02,0005.14
2024-02-14 09:10:00,SystemResetWarning,0823.8,4.99,000.00,019.3,018.8,000.0,027.9,021.1,15.1,0000.0,0005.72,0010.89,0005.12
2024-02-14 09:11:00,SystemResetWarning,0823.8,4.99,000.00,019.3,018.8,000.0,027.9,021.1,15.0,0000.0,0005.71,0011.06,0005.10
2024-02-14 09:12:00,SystemResetWarning,0823.7,5.00,000.00,019.3,018.8,000.0,027.9,021.1,15.0,0000.0,0005.69,0011.71,0005.09
2024-02-14 09:13:00,SystemResetWarning,0823.6,5.00,000.00,019.3,018.8,000.0,027.9,021.1,15.1,0000.0,0005.69,0011.92,0005.08
2024-02-14 09:14:00,SystemResetWarning,0823.5,5.00,000.00,019.3,018.8,000.0,027.9,021.1,15.2,0000.0,0005.70,0011.88,0005.07
2024-02-14 09:15:00,SystemResetWarning,0823.5,5.00,000.00,019.3,018.8,000.0,027.9,021.1,15.2,0000.0,0005.73,0011.80,0005.08
2024-02-14 09:16:00,SystemResetWarning,0823.5,5.00,000.00,019.3,018.8,000.0,027.9,021.1,15.2,0000.0,0005.75,0011.69,0005.11
2024-02-14 09:17:00,SystemResetWarning,0823.5,5.00,000.00,019.3,018.8,000.0,027.8,021.1,15.2,0000.0,0005.78,0011.74,0005.11
2024-02-14 09:18:00,SystemResetWarning,0823.5,5.00,000.00,019.3,018.7,000.0,027.8,021.0,15.3,0000.0,0005.77,0011.41,0005.10
2024-02-14 09:19:00,SystemResetWarning,0823.5,5.00,000.00,019.3,018.7,000.0,027.8,021.0,15.4,0000.0,0005.78,0011.75,0005.10
2024-02-14 09:20:00,SystemResetWarning,0823.5,5.00,000.00,019.2,018.7,000.0,027.8,020.9,15.4,0000.0,0005.73,0011.45,0005.09
2024-02-14 09:21:00,SystemResetWarning,0823.5,5.00,000.00,019.2,018.6,000.0,027.8,020.9,15.5,0000.0,0005.72,0010.60,0005.10
2024-02-14 09:22:00,SystemResetWarning,0823.6,5.00,000.00,019.2,018.6,000.0,027.8,020.9,15.4,0000.0,0005.70,0010.42,0005.11
2024-02-14 09:23:00,SystemResetWarning,0823.6,5.00,000.00,019.2,018.6,000.0,027.8,020.9,15.3,0000.0,0005.71,0009.75,0005.11
2024-02-14 09:24:00,SystemResetWarning,0823.6,5.00,000.00,019.2,018.6,000.0,027.8,020.9,15.2,0000.0,0005.71,0009.60,0005.11
2024-02-14 09:25:00,SystemResetWarning,0823.5,5.00,000.00,019.2,018.6,000.0,027.7,020.9,15.3,0000.0,0005.66,0010.28,0005.10
2024-02-14 09:26:00,SystemResetWarning,0823.5,5.00,000.00,019.2,018.6,000.0,027.7,020.9,15.4,0000.0,0005.62,0010.27,0005.10
2024-02-14 09:27:00,SystemResetWarning,0823.6,5.00,000.00,019.1,018.6,000.0,027.7,020.9,15.4,0000.0,0005.63,0010.68,0005.09
2024-02-14 09:28:00,SystemResetWarning,0823.7,5.00,000.00,019.1,018.6,000.0,027.7,020.9,15.4,0004.0,0005.61,0010.56,0005.09
2024-02-14 09:29:00,SystemResetWarning,0823.7,5.00,000.00,019.2,018.6,000.0,027.7,021.0,15.3,0004.6,0005.61,0010.53,0005.10
2024-02-14 09:30:00,SystemResetWarning,0823.6,4.99,000.00,019.2,018.6,000.0,027.7,021.0,15.2,0004.7,0005.58,0009.99,0005.10
2024-02-14 09:31:00,SystemResetWarning,0823.6,5.00,000.00,019.2,018.6,000.0,027.7,021.0,15.1,0004.3,0005.60,0010.09,0005.11
2024-02-14 09:32:00,SystemResetWarning,0823.5,5.00,000.00,019.2,018.6,000.0,027.7,021.0,15.1,0002.0,0005.60,0011.14,0005.10
2024-02-14 09:33:00,SystemResetWarning,0823.5,5.00,000.00,019.2,018.6,000.0,027.7,021.0,15.0,0000.0,0005.64,0011.66,0005.10
2024-02-14 09:34:00,SystemResetWarning,0823.4,5.00,000.00,019.2,018.6,000.0,027.7,021.0,15.0,0000.8,0005.63,0011.65,0005.10
2024-02-14 09:35:00,SystemResetWarning,0823.4,5.00,000.00,019.2,018.6,000.0,027.7,021.0,15.2,0002.1,0005.60,0011.52,0005.11
2024-02-14 09:36:00,SystemResetWarning,0823.4,5.00,000.00,019.2,018.6,000.0,027.7,021.0,15.2,0000.5,0005.57,0010.58,0005.11
2024-02-14 09:37:00,SystemResetWarning,0823.4,5.00,000.00,019.2,018.6,000.0,027.7,021.0,15.3,0000.0,0005.60,0011.69,0005.11
2024-02-14 09:38:00,SystemResetWarning,0823.5,5.00,000.00,019.2,018.6,000.0,027.7,021.0,15.3,0000.0,0005.55,0011.94,0005.09
2024-02-14 09:39:00,SystemResetWarning,0823.5,5.00,000.00,019.2,018.6,000.0,027.7,021.0,15.4,0000.0,0005.55,0012.35,0005.07
2024-02-14 09:40:00,SystemResetWarning,0823.5,5.01,000.00,019.1,018.6,000.0,027.7,020.9,15.3,0000.0,0005.54,0012.57,0005.06
2024-02-14 09:41:00,SystemResetWarning,0823.5,5.00,000.00,019.1,018.6,000.0,027.7,020.9,15.2,0000.0,0005.54,0013.01,0005.06
2024-02-14 09:42:00,SystemResetWarning,0823.4,5.00,000.00,019.1,018.6,000.0,027.7,020.9,15.1,0000.0,0005.53,0012.85,0005.06
2024-02-14 09:43:00,SystemResetWarning,0823.4,5.01,000.00,019.1,018.6,000.0,027.7,020.9,15.1,0000.0,0005.53,0012.03,0005.07
2024-02-14 09:44:00,SystemResetWarning,0823.4,5.00,000.00,019.1,018.6,000.0,027.7,021.0,15.1,0000.0,0005.53,0011.40,0005.08
2024-02-14 09:45:00,SystemResetWarning,0823.4,4.99,000.00,019.1,018.6,000.0,027.7,021.0,15.1,0000.0,0005.53,0011.43,0005.09
2024-02-14 09:46:00,SystemResetWarning,0823.4,4.99,000.00,019.1,018.6,000.0,027.7,021.0,15.1,0000.0,0005.57,0011.63,0005.10
2024-02-14 09:47:00,SystemResetWarning,0823.4,5.00,000.00,019.1,018.6,000.0,027.7,021.0,15.1,0000.0,0005.62,0011.80,0005.10
2024-02-14 09:48:00,SystemResetWarning,0823.3,5.00,000.00,019.1,018.6,000.0,027.7,021.0,15.1,0000.0,0005.62,0010.84,0005.10
2024-02-14 09:49:00,SystemResetWarning,0823.3,5.01,000.00,019.1,018.6,000.0,027.7,021.0,15.1,0000.0,0005.62,0009.99,0005.10
2024-02-14 09:50:00,SystemResetWarning,0823.3,5.01,000.00,019.1,018.6,000.0,027.7,021.0,15.1,0000.0,0005.62,0010.13,0005.12
2024-02-14 09:51:00,SystemResetWarning,0823.2,5.00,000.00,019.1,018.6,000.0,027.7,020.9,15.1,0000.0,0005.67,0010.41,0005.14
2024-02-14 09:52:00,SystemResetWarning,0823.3,5.00,000.00,019.1,018.6,000.0,027.7,020.9,15.0,0000.0,0005.68,0009.98,0005.14
2024-02-14 09:53:00,SystemResetWarning,0823.4,5.00,000.00,019.1,018.6,000.0,027.7,020.9,15.0,0000.0,0005.69,0010.11,0005.15
2024-02-14 09:54:00,SystemResetWarning,0823.4,4.99,000.00,019.1,018.6,000.0,027.7,020.9,15.0,0000.0,0005.69,0010.69,0005.14
2024-02-14 09:55:00,SystemResetWarning,0823.4,4.99,000.00,019.1,018.6,000.0,027.7,020.9,14.9,0000.0,0005.66,0010.62,0005.12
2024-02-14 09:56:00,SystemResetWarning,0823.3,5.02,000.00,019.1,018.6,000.0,027.7,020.9,14.8,0000.0,0005.66,0010.58,0005.12
2024-02-14 09:57:00,SystemResetWarning,0823.3,5.00,000.00,019.1,018.6,000.0,027.7,020.9,14.8,0000.0,0005.64,0010.49,0005.10
2024-02-14 09:58:00,SystemResetWarning,0823.3,4.99,000.00,019.1,018.5,000.0,027.7,020.9,14.8,0000.0,0005.63,0010.61,0005.11
2024-02-14 09:59:00,SystemResetWarning,0823.3,5.00,000.00,019.1,018.5,000.0,027.7,020.9,14.8,0000.0,0005.65,0011.05,0005.13
